When you browse on this site, cookies collect data to enhance your experience and personalize the content and advertising you see.
Visit our Privacy Policy to learn more. By continuing to use the site, you agree to this use of cookies and data.
  • In Netherlands
  • List of Countries
  • For 7 days
  • Water Temperature
  • Weather Map
  • Weather Widgets
  • user-avatar
    Login

    Hourly Weather Pamporovo

    Today, 18 August, Sunday

    Time Temperature Precipitation Wind Pressure Humidity
    00:00 +9°C° 0 mm 1 mps 625 mmHg 77%
    01:00 +9°C° 0 mm 1 mps 625 mmHg 77%
    02:00 +8°C° 0 mm 1 mps 625 mmHg 78%
    03:00 +8°C° 0 mm 1 mps 625 mmHg 78%
    04:00 +8°C° 0 mm 1 mps 625 mmHg 77%
    05:00 +8°C° 0 mm 1 mps 625 mmHg 77%
    06:00 +10°C° 0 mm 1 mps 626 mmHg 70%
    07:00 +12°C° 0 mm 1 mps 627 mmHg 64%
    08:00 +14°C° 0 mm 1 mps 628 mmHg 57%
    09:00 +16°C° 0 mm 1 mps 629 mmHg 52%
    10:00 +18°C° 0 mm 1 mps 629 mmHg 46%
    11:00 +20°C° 0 mm 1 mps 630 mmHg 41%
    12:00 +19°C° 0 mm 2 mps 630 mmHg 41%
    13:00 +19°C° 0 mm 2 mps 630 mmHg 41%
    14:00 +20°C° 0 mm 2 mps 629 mmHg 41%
    15:00 +19°C° 0 mm 2 mps 629 mmHg 42%
    16:00 +19°C° 0 mm 2 mps 629 mmHg 43%
    17:00 +20°C° 0 mm 1 mps 628 mmHg 44%
    18:00 +18°C° 0 mm 1 mps 628 mmHg 52%
    19:00 +14°C° 0 mm 1 mps 627 mmHg 59%
    20:00 +12°C° 0 mm 1 mps 626 mmHg 67%
    21:00 +12°C° 0 mm 1 mps 626 mmHg 67%
    22:00 +11°C° 0 mm 1 mps 627 mmHg 67%
    23:00 +11°C° 0 mm 1 mps 627 mmHg 67%

    Tomorrow, 19 August, Monday

    Time Temperature Precipitation Wind Pressure Humidity
    00:00 +11°C° 0 mm 1 mps 627 mmHg 67%
    01:00 +11°C° 0 mm 1 mps 627 mmHg 67%
    02:00 +10°C° 0 mm 1 mps 627 mmHg 67%
    03:00 +10°C° 0 mm 1 mps 627 mmHg 67%
    04:00 +10°C° 0 mm 1 mps 627 mmHg 67%
    05:00 +10°C° 0 mm 1 mps 627 mmHg 68%
    06:00 +12°C° 0 mm 1 mps 627 mmHg 63%
    07:00 +14°C° 0 mm 1 mps 628 mmHg 58%
    08:00 +16°C° 0 mm 1 mps 629 mmHg 54%
    09:00 +18°C° 0 mm 1 mps 630 mmHg 50%
    10:00 +19°C° 0 mm 2 mps 630 mmHg 45%
    11:00 +20°C° 0 mm 2 mps 631 mmHg 41%
    12:00 +20°C° 0 mm 2 mps 631 mmHg 39%
    13:00 +21°C° 0 mm 3 mps 631 mmHg 37%
    14:00 +21°C° 0 mm 3 mps 631 mmHg 36%
    15:00 +21°C° 0 mm 3 mps 631 mmHg 36%
    16:00 +20°C° 0 mm 3 mps 630 mmHg 37%
    17:00 +20°C° 0 mm 3 mps 630 mmHg 38%
    18:00 +18°C° 0 mm 2 mps 629 mmHg 44%
    19:00 +15°C° 0 mm 2 mps 629 mmHg 50%
    20:00 +13°C° 0 mm 1 mps 628 mmHg 57%
    21:00 +12°C° 0 mm 1 mps 628 mmHg 57%
    22:00 +12°C° 0 mm 1 mps 628 mmHg 58%
    23:00 +11°C° 0 mm 1 mps 628 mmHg 58%

    Day after tomorrow, 20 August, Tuesday

    Time Temperature Precipitation Wind Pressure Humidity
    00:00 +11°C° 0 mm 1 mps 628 mmHg 59%
    01:00 +11°C° 0 mm 1 mps 628 mmHg 60%
    02:00 +11°C° 0 mm 1 mps 628 mmHg 62%
    03:00 +11°C° 0 mm 1 mps 628 mmHg 62%
    04:00 +10°C° 0 mm 1 mps 628 mmHg 63%
    05:00 +10°C° 0 mm 1 mps 628 mmHg 64%
    06:00 +12°C° 0 mm 1 mps 629 mmHg 59%
    07:00 +15°C° 0 mm 1 mps 630 mmHg 55%
    08:00 +18°C° 0 mm 1 mps 631 mmHg 51%
    09:00 +18°C° 0 mm 2 mps 631 mmHg 46%
    10:00 +19°C° 0 mm 2 mps 632 mmHg 42%
    11:00 +21°C° 0 mm 3 mps 632 mmHg 37%
    12:00 +21°C° 0 mm 3 mps 632 mmHg 37%
    13:00 +22°C° 0 mm 4 mps 632 mmHg 36%
    14:00 +22°C° 0 mm 4 mps 632 mmHg 36%
    15:00 +22°C° 0 mm 4 mps 631 mmHg 38%
    16:00 +21°C° 0 mm 4 mps 631 mmHg 39%
    17:00 +21°C° 0 mm 4 mps 631 mmHg 41%
    18:00 +18°C° 0 mm 3 mps 630 mmHg 47%
    19:00 +16°C° 0 mm 2 mps 629 mmHg 53%
    20:00 +14°C° 0 mm 2 mps 629 mmHg 60%
    21:00 +13°C° 0 mm 1 mps 629 mmHg 60%
    22:00 +13°C° 0 mm 1 mps 629 mmHg 60%
    23:00 +12°C° 0 mm 1 mps 629 mmHg 60%

    21 August, Wednesday

    Time Temperature Precipitation Wind Pressure Humidity
    00:00 +12°C° 0 mm 1 mps 629 mmHg 60%
    01:00 +10°C° 0 mm 2 mps 628 mmHg 60%
    02:00 +10°C° 0 mm 2 mps 628 mmHg 60%
    03:00 +10°C° 0 mm 2 mps 628 mmHg 61%
    04:00 +10°C° 0 mm 2 mps 628 mmHg 61%
    05:00 +10°C° 0 mm 2 mps 628 mmHg 62%
    06:00 +13°C° 0 mm 2 mps 629 mmHg 58%
    07:00 +15°C° 0 mm 2 mps 630 mmHg 54%
    08:00 +17°C° 0 mm 2 mps 631 mmHg 49%
    09:00 +19°C° 0 mm 2 mps 631 mmHg 46%
    10:00 +20°C° 0 mm 2 mps 632 mmHg 44%
    11:00 +23°C° 0 mm 2 mps 632 mmHg 41%
    12:00 +23°C° 0 mm 2 mps 632 mmHg 41%
    13:00 +24°C° 0 mm 2 mps 632 mmHg 40%
    14:00 +24°C° 0 mm 2 mps 631 mmHg 40%
    15:00 +24°C° 0 mm 2 mps 631 mmHg 42%
    16:00 +22°C° 0 mm 3 mps 630 mmHg 45%
    17:00 +22°C° 0 mm 3 mps 630 mmHg 47%
    18:00 +20°C° 0 mm 2 mps 629 mmHg 57%
    19:00 +17°C° 0 mm 2 mps 629 mmHg 66%
    20:00 +15°C° 0 mm 1 mps 628 mmHg 76%
    21:00 +15°C° 0 mm 1 mps 628 mmHg 76%
    22:00 +14°C° 0 mm 1 mps 628 mmHg 76%
    23:00 +14°C° 0 mm 1 mps 628 mmHg 75%

    22 August, Thursday

    Time Temperature Precipitation Wind Pressure Humidity
    00:00 +14°C° 0 mm 1 mps 628 mmHg 74%
    01:00 +14°C° 0 mm 1 mps 628 mmHg 73%
    02:00 +13°C° 0 mm 1 mps 628 mmHg 72%
    03:00 +13°C° 0 mm 2 mps 627 mmHg 72%
    04:00 +13°C° 0 mm 2 mps 627 mmHg 72%
    05:00 +13°C° 0 mm 2 mps 627 mmHg 71%
    06:00 +15°C° 0 mm 2 mps 628 mmHg 66%
    07:00 +17°C° 0 mm 2 mps 629 mmHg 60%
    08:00 +19°C° 0 mm 2 mps 630 mmHg 54%
    09:00 +20°C° 0 mm 2 mps 630 mmHg 48%
    10:00 +21°C° 0 mm 3 mps 631 mmHg 43%
    11:00 +24°C° 0 mm 3 mps 631 mmHg 37%
    12:00 +24°C° 0 mm 3 mps 631 mmHg 35%
    13:00 +25°C° 0 mm 3 mps 631 mmHg 33%
    14:00 +25°C° 0 mm 3 mps 631 mmHg 32%
    15:00 +25°C° 0 mm 3 mps 630 mmHg 34%
    16:00 +24°C° 0 mm 3 mps 630 mmHg 35%
    17:00 +24°C° 0 mm 3 mps 630 mmHg 37%
    18:00 +20°C° 0 mm 3 mps 629 mmHg 43%
    19:00 +18°C° 0 mm 2 mps 628 mmHg 49%
    20:00 +16°C° 0 mm 2 mps 628 mmHg 55%
    21:00 +15°C° 0 mm 2 mps 628 mmHg 55%
    22:00 +15°C° 0 mm 2 mps 628 mmHg 56%
    23:00 +14°C° 0 mm 2 mps 628 mmHg 57%

    23 August, Friday

    Time Temperature Precipitation Wind Pressure Humidity
    00:00 +14°C° 0 mm 2 mps 628 mmHg 60%
    01:00 +14°C° 0 mm 2 mps 628 mmHg 62%
    02:00 +13°C° 0 mm 2 mps 627 mmHg 65%
    03:00 +13°C° 0 mm 2 mps 627 mmHg 67%
    04:00 +13°C° 0 mm 2 mps 627 mmHg 69%
    05:00 +13°C° 0 mm 2 mps 627 mmHg 71%
    06:00 +15°C° 0 mm 2 mps 628 mmHg 65%
    07:00 +17°C° 0 mm 2 mps 629 mmHg 59%
    08:00 +19°C° 0 mm 2 mps 630 mmHg 53%
    09:00 +20°C° 0 mm 2 mps 630 mmHg 48%
    10:00 +21°C° 0 mm 3 mps 631 mmHg 44%
    11:00 +24°C° 0 mm 3 mps 631 mmHg 40%
    12:00 +24°C° 0 mm 3 mps 631 mmHg 39%
    13:00 +25°C° 0 mm 4 mps 631 mmHg 38%
    14:00 +25°C° 0 mm 4 mps 631 mmHg 38%
    15:00 +25°C° 0 mm 4 mps 631 mmHg 39%
    16:00 +23°C° 0 mm 4 mps 630 mmHg 41%
    17:00 +23°C° 0 mm 4 mps 630 mmHg 43%
    18:00 +20°C° 0 mm 3 mps 629 mmHg 49%
    19:00 +18°C° 0 mm 3 mps 629 mmHg 56%
    20:00 +16°C° 0 mm 2 mps 628 mmHg 63%
    21:00 +16°C° 0 mm 2 mps 628 mmHg 63%
    22:00 +15°C° 0 mm 2 mps 628 mmHg 63%
    23:00 +15°C° 0 mm 2 mps 628 mmHg 64%
    Show more